Simultaneous Nadir Overpasses (SNOs) Predictions

Prediction of SNOs between AQUA and METOP-A Satellite Orbit:

Table of predicted SNOs for the next 14.0 days since TLE Epoch: 5/6/2018
Index Date (AQUA) Time (AQUA) Lat,Lon (AQUA) SZA (AQUA ) Date (METOP-A) Time (METOP-A) Lat,Lon (METOP-A) SZA (METOP-A ) Distance(km) Time Diff (sec)
1 05/07/2018 02:51:26 -74.34, -49.57 122.43 05/07/2018 02:50:38 -74.32, -49.52 122.45 2.81 48
2 05/07/2018 03:40:55 74.39, 117.95 57.61 05/07/2018 03:41:16 74.39, 118.01 57.62 2.00 21
3 05/09/2018 22:25:39 -74.33, 16.91 123.21 05/09/2018 22:24:55 -74.31, 16.87 123.21 1.64 44
4 05/09/2018 23:15:08 74.38,-175.58 56.84 05/09/2018 23:15:33 74.39,-175.60 56.85 1.31 25
5 05/12/2018 17:59:53 -74.32, 83.36 123.94 05/12/2018 17:59:13 -74.31, 83.26 123.94 3.36 40
6 05/12/2018 18:49:22 74.37,-109.14 56.11 05/12/2018 18:49:51 74.38,-109.22 56.12 2.60 29
7 05/15/2018 13:34:07 -74.32, 149.79 124.62 05/15/2018 13:33:30 -74.35, 149.76 124.59 2.90 37
8 05/15/2018 14:23:37 74.43, -42.83 55.50 05/15/2018 14:24:08 74.42, -42.72 55.48 3.72 31
9 05/18/2018 09:08:20 -74.33,-143.79 125.24 05/18/2018 09:07:47 -74.33,-143.86 125.23 2.15 33
10 05/18/2018 09:57:49 74.39, 23.70 54.82 05/18/2018 09:58:25 74.41, 23.66 54.83 1.93 36




NCC Satellite Simultaneous Nadir Overpasses (SNOs) Prediction Service
